Location: Taukkyan
(23.1052°N, 94.0030°E)
Time: 22:33:30
(UTC+00:00)

Delta 198 - Pass Details

Date: 06 July 2020
Orbit: 458 x 1020 km, 24.8° (Epoch: 05 August)

Event Time Altitude Azimuth Distance (km) Brightness Sun altitude
Exits shadow 22:36:03 - 271° (W) 2,614 6.2 -6.6°
Reaches altitude 10° 22:37:37 10° 264° (W) 2,055 5.7 -6.3°
Maximum altitude 22:41:44 29° 204° (SSW) 1,074 4.4 -5.5°
Drops below altitude 10° 22:45:20 10° 143° (SE) 1,779 6.1 -4.7°
Sets 22:47:37 0° 131° (SE) 2,597 7.1 -4.2°
